FW6806 Weather Reports


Display with metric or nautical units.
time (UTC)temp
F
wind
direction
speed
MPH
gust
MPH
rain 1hr
in
rain 24hr
in
rain mn
in
humidity
%
barometer
mb
20260504184517 70 9 7.0 16.0 0.00 0.00 0.00 37 1009.4
20260504183011 70 75 6.0 18.0 0.00 0.00 0.00 37 1009.7
20260504181513 70 118 7.0 16.0 0.00 0.00 0.00 36 1009.9
20260504180008 69 135 10.0 19.0 0.00 0.00 0.00 36 1010.2
20260504174504 70 141 10.0 14.0 0.00 0.00 0.00 35 1010.4
20260504173102 69 117 7.0 18.0 0.00 0.00 0.00 36 1010.6
20260504171556 69 87 5.0 15.0 0.00 0.00 0.00 37 1010.6
20260504081523 48 360 4.0 9.0 0.00 0.00 0.00 71 1013.1
20260504044533 52 360 2.0 5.0 0.00 0.00 0.00 49 1012.7
20260504043024 52 360 2.0 5.0 0.00 0.00 0.00 48 1012.5
20260504041548 52 360 2.0 5.0 0.00 0.00 0.00 48 1012.3
20260504040103 52 360 3.0 5.0 0.00 0.00 0.00 48 1012.3
20260504034608 53 360 3.0 6.0 0.00 0.00 0.00 47 1012.2
20260504033043 52 360 2.0 6.0 0.00 0.00 0.00 47 1012.1
20260504031545 52 360 2.0 5.0 0.00 0.00 0.00 47 1012.1
20260504024538 53 360 1.0 5.0 0.00 0.00 0.00 46 1012.2
20260504023037 53 360 3.0 6.0 0.00 0.00 0.00 46 1012.2
20260504021536 53 360 3.0 6.0 0.00 0.00 0.00 46 1012.2
20260504020036 53 360 2.0 5.0 0.00 0.00 0.00 46 1012.1
20260504014535 53 360 1.0 4.0 0.00 0.00 0.00 46 1012.1
20260504013045 54 360 2.0 4.0 0.00 0.00 0.00 45 1011.8
20260504011533 54 360 2.0 4.0 0.00 0.00 0.00 44 1011.7
20260504010032 55 360 2.0 4.0 0.00 0.00 0.00 43 1011.5
20260504004530 55 360 2.0 4.0 0.00 0.00 0.00 43 1011.2
20260504003031 56 360 2.0 4.0 0.00 0.00 0.00 41 1011.1
20260504001528 57 360 1.0 4.0 0.00 0.00 0.00 39 1010.8
20260504000028 58 360 2.0 8.0 0.00 0.00 0.00 38 1010.8
20260503234527 59 360 5.0 12.0 0.00 0.00 0.00 36 1010.7
20260503233024 59 150 5.0 11.0 0.00 0.00 0.00 35 1010.6
20260503231524 60 144 4.0 10.0 0.00 0.00 0.00 35 1010.5
20260503230024 60 123 7.0 11.0 0.00 0.00 0.00 34 1010.5
20260503224525 60 185 5.0 15.0 0.00 0.00 0.00 34 1010.6
20260503224523 60 184 5.0 15.0 0.00 0.00 0.00 34 1010.6
20260503223053 61 135 8.0 13.0 0.00 0.00 0.00 33 1010.5
20260503221553 60 140 8.0 16.0 0.00 0.00 0.00 32 1010.6
20260503220049 60 134 8.0 18.0 0.00 0.00 0.00 32 1010.6
20260503214559 60 136 9.0 18.0 0.00 0.00 0.00 32 1010.6
20260503213049 60 143 8.0 19.0 0.00 0.00 0.00 32 1010.6
20260503211552 60 209 7.0 17.0 0.00 0.00 0.00 33 1010.6
20260503210043 60 153 12.0 17.0 0.00 0.00 0.00 33 1010.6
20260503204553 59 161 10.0 21.0 0.00 0.00 0.00 34 1010.6
20260503203047 60 94 5.0 16.0 0.00 0.00 0.00 34 1010.8
20260503201540 59 360 10.0 24.0 0.00 0.00 0.00 35 1011.0
20260503200009 58 360 12.0 20.0 0.00 0.00 0.00 35 1011.2
20260503194508 59 86 6.0 21.0 0.00 0.00 0.00 35 1011.1
20260503193041 58 184 8.0 18.0 0.00 0.00 0.00 36 1011.5
20260503191536 58 360 7.0 18.0 0.00 0.00 0.00 34 1011.7
20260503190044 59 360 7.0 15.0 0.00 0.00 0.00 33 1011.7